Sigfox identifier Datetime Temperature Humidity SNR
002EEA0D 2019-04-23 14:54:05 21.4 29 19.7
002EEA0D 2019-04-23 14:20:18 21.4 29 19.7
002EEA0D 2019-04-23 13:46:31 21.4 29 19.8
002EEA0D 2019-04-23 13:12:46 21.4 29 19.9
002EEA0D 2019-04-23 12:38:58 21.4 29 19.9
002EEA0D 2019-04-23 12:05:11 21.4 29 19.7
002EEA0D 2019-04-23 11:31:24 21.4 28 19.8
002EEA0D 2019-04-23 10:57:41 21.3 28 19.8
002EEA0D 2019-04-23 10:23:50 21.2 28 19.7
002EEA0D 2019-04-23 09:50:03 21.2 28 19.3
002EEA0D 2019-04-23 09:16:19 21 28 19.3
002EEA0D 2019-04-23 08:42:29 21 28 19.1
002EEA0D 2019-04-23 08:08:44 21 28 19.2
002EEA0D 2019-04-23 07:34:55 21 28 19.4
002EEA0D 2019-04-23 07:01:09 21 28 19.5
002EEA0D 2019-04-23 06:27:22 21 28 19.4
002EEA0D 2019-04-23 05:53:36 21 28 19.3
002EEA0D 2019-04-23 05:19:50 21 28 19.4
002EEA0D 2019-04-23 04:46:05 21 28 19.4
002EEA0D 2019-04-23 04:12:18 21 28 17
002EEA0D 2019-04-23 03:38:33 21 28 17.2
002EEA0D 2019-04-23 03:04:48 21 28 17.3
002EEA0D 2019-04-23 02:31:03 21 28 17.3
002EEA0D 2019-04-23 01:57:18 21 28 17.3
002EEA0D 2019-04-23 01:23:32 21 28 17.1
002EEA0D 2019-04-23 00:49:45 21 28 17.3
002EEA0D 2019-04-23 00:15:58 21 28 17.2
002EEA0D 2019-04-22 23:42:12 21 28 17
002EEA0D 2019-04-22 23:08:27 21 28 17
002EEA0D 2019-04-22 22:34:42 21 28 17
002EEA0D 2019-04-22 22:00:56 21 28 16.9
002EEA0D 2019-04-22 21:27:10 21 28 17.2
002EEA0D 2019-04-22 20:53:24 21 28 17.4
002EEA0D 2019-04-22 20:19:38 21 28 17.4
002EEA0D 2019-04-22 19:45:51 21 28 17.2
002EEA0D 2019-04-22 19:12:05 21 28 17.1
002EEA0D 2019-04-22 18:38:19 21 28 16.8
002EEA0D 2019-04-22 18:04:33 21 28 17
002EEA0D 2019-04-22 17:30:48 21 28 16.8
002EEA0D 2019-04-22 16:57:02 21 28 16.7
002EEA0D 2019-04-22 16:23:15 21 28 16.6
002EEA0D 2019-04-22 15:49:29 21 27 16.5
002EEA0D 2019-04-22 15:15:43 21 27 16.5
002EEA0D 2019-04-22 14:41:57 21 27 16.2
002EEA0D 2019-04-22 14:08:11 21 27 16.1
002EEA0D 2019-04-22 13:34:25 21 27 15.6
002EEA0D 2019-04-22 13:00:38 21 27 15.9
002EEA0D 2019-04-22 12:26:52 21 27 15.9
002EEA0D 2019-04-22 11:53:06 21 27 16.3
002EEA0D 2019-04-22 11:19:19 21.1 27 16
002EEA0D 2019-04-22 10:45:33 21.1 27 16.1
002EEA0D 2019-04-22 10:11:46 21.1 27 16.1
002EEA0D 2019-04-22 09:38:03 21.1 27 16.1
002EEA0D 2019-04-22 09:04:16 21.1 26 16.1
002EEA0D 2019-04-22 08:30:31 21.1 26 16
002EEA0D 2019-04-22 07:56:45 21.1 26 15.7
002EEA0D 2019-04-22 07:22:59 21.1 26 15.3
002EEA0D 2019-04-22 06:49:12 21 26 16
002EEA0D 2019-04-22 06:15:27 21.1 26 15.9
002EEA0D 2019-04-22 05:41:41 21.1 26 16
002EEA0D 2019-04-22 05:07:56 21.1 26 16.1
002EEA0D 2019-04-22 04:34:12 21.2 26 15.9
002EEA0D 2019-04-22 04:00:27 21.2 26 15.9
002EEA0D 2019-04-22 03:26:42 21.2 26 15.8
002EEA0D 2019-04-22 02:52:56 21.2 26 15.7
002EEA0D 2019-04-22 02:19:12 21.2 26 15.7
002EEA0D 2019-04-22 01:45:25 21.2 26 15.7
002EEA0D 2019-04-22 01:11:40 21.2 26 15.8
002EEA0D 2019-04-22 00:37:54 21.2 26 15.9
002EEA0D 2019-04-22 00:04:09 21.2 26 15.9
002EEA0D 2019-04-21 23:30:23 21.2 27 15.9
002EEA0D 2019-04-21 22:56:40 21.2 27 16.3
002EEA0D 2019-04-21 22:22:53 21.4 27 16.2
002EEA0D 2019-04-21 21:49:08 21.3 26 16.3
002EEA0D 2019-04-21 21:15:22 21.3 27 16.5
002EEA0D 2019-04-21 20:41:35 21.3 27 16.5
002EEA0D 2019-04-21 20:07:50 21.3 27 17.1
002EEA0D 2019-04-21 19:34:04 21.2 26 17.1
002EEA0D 2019-04-21 19:00:20 21.2 26 17.3
002EEA0D 2019-04-21 18:26:35 21.2 26 17.3
002EEA0D 2019-04-21 17:52:49 21.2 26 17.3
002EEA0D 2019-04-21 17:19:03 21.2 26 16.8
002EEA0D 2019-04-21 16:45:17 21.2 26 16.8
002EEA0D 2019-04-21 16:11:33 21.1 26 16.9
002EEA0D 2019-04-21 15:37:49 21 26 16.8
002EEA0D 2019-04-21 15:04:01 21 26 16.5
002EEA0D 2019-04-21 14:30:16 21 26 19.3
002EEA0D 2019-04-21 13:56:31 21 26 19.5
002EEA0D 2019-04-21 13:22:44 21 26 19.5
002EEA0D 2019-04-21 12:48:57 21 26 19.5
002EEA0D 2019-04-21 12:15:10 21 26 19.5
002EEA0D 2019-04-21 11:41:23 21 26 19.4
002EEA0D 2019-04-21 11:07:38 21 26 19.4
002EEA0D 2019-04-21 10:33:51 21 26 19.2
002EEA0D 2019-04-21 10:00:04 21 26 19.1
002EEA0D 2019-04-21 09:26:18 21 26 19
002EEA0D 2019-04-21 08:52:32 21 26 18.8
002EEA0D 2019-04-21 08:18:46 21 26 18.8
002EEA0D 2019-04-21 07:44:59 21 26 18.7
002EEA0D 2019-04-21 07:11:14 21 26 18.6
002EEA0D 2019-04-21 06:37:28 21 26 18.5
002EEA0D 2019-04-21 06:03:42 21 26 18.3
002EEA0D 2019-04-21 05:29:56 21 26 18.3
002EEA0D 2019-04-21 04:56:12 21.1 26 18.6
002EEA0D 2019-04-21 04:22:24 21.1 26 18.6
002EEA0D 2019-04-21 03:48:38 21 26 18.8
002EEA0D 2019-04-21 03:14:53 21.1 26 19
002EEA0D 2019-04-21 02:41:06 21.1 26 19.1
002EEA0D 2019-04-21 02:07:22 21.1 26 19.5
002EEA0D 2019-04-21 01:33:36 21.1 26 19.6
002EEA0D 2019-04-21 00:59:49 21.2 26 20
002EEA0D 2019-04-21 00:26:03 21.1 25 18.1
002EEA0D 2019-04-20 23:52:19 21.2 25 18.2
002EEA0D 2019-04-20 23:18:30 21.1 25 18.2
002EEA0D 2019-04-20 22:44:44 21.2 25 18.3
002EEA0D 2019-04-20 22:10:58 21.2 25 18.5
002EEA0D 2019-04-20 21:37:11 21.2 25 18.6
002EEA0D 2019-04-20 21:03:26 21.1 25 18.6
002EEA0D 2019-04-20 20:29:44 21.2 25 19.2
002EEA0D 2019-04-20 19:55:55 21.2 25 19.5
002EEA0D 2019-04-20 19:22:12 21.2 25 20
002EEA0D 2019-04-20 18:48:26 21.2 25 20.3
002EEA0D 2019-04-20 18:14:38 21.2 25 20.2
002EEA0D 2019-04-20 17:40:51 21.2 25 20.5
002EEA0D 2019-04-20 17:07:06 21.2 25 20.5
002EEA0D 2019-04-20 15:25:48 21.2 25 20.6
002EEA0D 2019-04-20 14:52:01 21.1 25 20.5
002EEA0D 2019-04-20 14:18:19 21 24 20.7
002EEA0D 2019-04-20 13:44:29 21 24 20.7
002EEA0D 2019-04-20 13:10:44 21 24 21
002EEA0D 2019-04-20 12:36:57 21 24 20.8
002EEA0D 2019-04-20 12:03:14 21 24 21
002EEA0D 2019-04-20 11:29:23 21 24 21.1
002EEA0D 2019-04-20 10:55:36 21 24 20.8
002EEA0D 2019-04-20 10:21:49 21 24 20.8
002EEA0D 2019-04-20 09:48:02 21 24 20.7
002EEA0D 2019-04-20 09:14:16 21 24 20.6
002EEA0D 2019-04-20 08:40:31 21 24 20.6
002EEA0D 2019-04-20 08:06:42 21 24 20.7
002EEA0D 2019-04-20 07:32:56 21 24 20.8
002EEA0D 2019-04-20 06:59:11 21 24 20.8
002EEA0D 2019-04-20 06:25:25 21 24 21
002EEA0D 2019-04-20 05:51:39 21 24 20.7
002EEA0D 2019-04-20 05:17:53 21 24 20.5
002EEA0D 2019-04-20 04:44:07 21 24 20.4
002EEA0D 2019-04-20 04:10:22 21 24 20.1
002EEA0D 2019-04-20 03:36:35 21 24 20
002EEA0D 2019-04-20 03:02:49 21 24 20
002EEA0D 2019-04-20 02:29:03 20.9 24 20.3
002EEA0D 2019-04-20 01:55:16 20.9 24 20.3
002EEA0D 2019-04-20 01:21:30 20.8 24 20.6
002EEA0D 2019-04-20 00:47:43 20.8 24 20.5
002EEA0D 2019-04-20 00:13:58 20.7 24 20.2
002EEA0D 2019-04-19 23:40:12 20.8 24 20
002EEA0D 2019-04-19 23:06:26 20.7 24 20.3
002EEA0D 2019-04-19 22:32:40 20.8 24 20.2
002EEA0D 2019-04-19 21:58:53 20.8 24 20
002EEA0D 2019-04-19 21:25:07 20.8 24 21.5
002EEA0D 2019-04-19 20:51:21 20.7 24 21.7
002EEA0D 2019-04-19 20:17:38 20.8 24 21.8
002EEA0D 2019-04-19 19:43:48 20.7 24 21.9
002EEA0D 2019-04-19 19:10:02 20.7 24 22.1
002EEA0D 2019-04-19 18:36:16 20.7 24 22.2
002EEA0D 2019-04-19 18:02:28 20.7 24 22.2
002EEA0D 2019-04-19 17:28:41 20.7 24 22.1
002EEA0D 2019-04-19 16:54:55 20.7 24 22.1
002EEA0D 2019-04-19 16:21:09 20.7 24 22.2
002EEA0D 2019-04-19 15:47:22 20.7 24 22.3
002EEA0D 2019-04-19 15:13:36 20.7 24 22.4
002EEA0D 2019-04-19 14:39:49 20.7 25 22.4
002EEA0D 2019-04-19 14:06:01 20.8 25 22.4
002EEA0D 2019-04-19 13:32:15 20.8 25 22.4
002EEA0D 2019-04-19 12:58:31 20.9 25 22.4
002EEA0D 2019-04-19 12:24:43 20.9 25 22.3
002EEA0D 2019-04-19 11:50:57 21 25 22.4
002EEA0D 2019-04-19 11:17:11 21 25 22.3
002EEA0D 2019-04-19 10:43:25 21 25 22.3
002EEA0D 2019-04-19 10:09:39 21 25 22.5
002EEA0D 2019-04-19 09:35:54 21 26 22.4
002EEA0D 2019-04-19 09:02:06 21 26 22.4
002EEA0D 2019-04-19 08:28:20 21.1 26 22.3
002EEA0D 2019-04-19 07:54:34 21.1 26 22.5
002EEA0D 2019-04-19 07:20:48 21 26 21.4
002EEA0D 2019-04-19 06:47:01 21.1 26 21.1
002EEA0D 2019-04-19 06:13:15 21.2 26 20.8
002EEA0D 2019-04-19 05:39:28 21.2 26 20.8
002EEA0D 2019-04-19 05:05:42 21.2 26 20.3
002EEA0D 2019-04-19 04:31:57 21.2 26 20.3
002EEA0D 2019-04-19 03:58:10 21.2 26 21.5
002EEA0D 2019-04-19 03:24:25 21.2 26 22.6
002EEA0D 2019-04-19 02:50:36 21.2 26 23.4
002EEA0D 2019-04-19 02:16:50 21.2 26 24
002EEA0D 2019-04-19 01:43:02 21.2 26 24.3
002EEA0D 2019-04-19 01:09:16 21.2 26 24.4
002EEA0D 2019-04-19 00:35:31 21.2 26 24.6
002EEA0D 2019-04-19 00:01:45 21.2 26 24.8
002EEA0D 2019-04-18 23:28:00 21.2 26 25
002EEA0D 2019-04-18 22:54:14 21.2 26 25
002EEA0D 2019-04-18 22:20:28 21.2 26 25.1
002EEA0D 2019-04-18 21:46:42 21.2 26 25.1
002EEA0D 2019-04-18 21:12:57 21.2 26 25.2
002EEA0D 2019-04-18 20:39:10 21.2 26 25.3
002EEA0D 2019-04-18 20:05:25 21.2 26 25.6
002EEA0D 2019-04-18 19:31:39 21.4 26 25.7
002EEA0D 2019-04-18 18:57:53 21.4 26 26
002EEA0D 2019-04-18 18:24:06 21.4 26 26.1
002EEA0D 2019-04-18 17:50:18 21.4 26 26.1
002EEA0D 2019-04-18 17:16:30 21.4 26 26.2
002EEA0D 2019-04-18 16:42:47 21.5 26 26.4
002EEA0D 2019-04-18 16:08:58 21.5 26 26.6
002EEA0D 2019-04-18 15:35:09 21.6 26 26.7
002EEA0D 2019-04-18 15:01:22 21.6 26 26.8
002EEA0D 2019-04-18 14:27:37 21.6 26 27
002EEA0D 2019-04-18 13:53:48 21.8 26 26.8
002EEA0D 2019-04-18 13:20:00 21.8 26 26.5
002EEA0D 2019-04-18 12:46:14 22 26 26.3
002EEA0D 2019-04-18 12:12:26 22.2 22 26.1
002EEA0D 2019-04-18 11:38:38 22.4 21 26
002EEA0D 2019-04-18 11:04:52 22.2 22 25.9
002EEA0D 2019-04-18 10:31:04 22.2 22 25.9
002EEA0D 2019-04-18 09:57:17 22.1 22 25.8
002EEA0D 2019-04-18 09:23:30 22 22 25.9
002EEA0D 2019-04-18 08:49:42 22.1 22 26
002EEA0D 2019-04-18 08:15:55 22 22 26
002EEA0D 2019-04-18 07:42:10 22.1 21 26.1
002EEA0D 2019-04-18 07:08:23 22.1 22 26.1
002EEA0D 2019-04-18 06:34:36 22 22 26
002EEA0D 2019-04-18 06:00:50 22 22 26.2
002EEA0D 2019-04-18 05:27:04 22 22 26.2
002EEA0D 2019-04-18 04:53:17 22 22 26
002EEA0D 2019-04-18 04:19:31 22.2 22 26
002EEA0D 2019-04-18 03:45:43 22.2 23 26
002EEA0D 2019-04-18 03:11:56 22.2 23 26
002EEA0D 2019-04-18 02:38:10 22.2 23 26
002EEA0D 2019-04-18 02:04:22 22.2 23 26.2
002EEA0D 2019-04-18 01:30:36 22.2 23 26.2
002EEA0D 2019-04-18 00:56:49 22.2 23 26.1
002EEA0D 2019-04-18 00:23:03 22.2 23 26.1
002EEA0D 2019-04-17 23:49:16 22.3 23 25.9
002EEA0D 2019-04-17 23:15:28 22.3 23 26.2
002EEA0D 2019-04-17 22:41:41 22.5 23 26.3
002EEA0D 2019-04-17 22:07:54 22.5 23 26.5
002EEA0D 2019-04-17 21:34:07 22.5 23 26.5
002EEA0D 2019-04-17 21:00:20 22.6 23 26.5
002EEA0D 2019-04-17 20:26:34 22.7 23 26.5
002EEA0D 2019-04-17 19:52:48 22.7 23 26.5
002EEA0D 2019-04-17 19:19:01 22.7 23 26.5
002EEA0D 2019-04-17 18:45:16 22.7 22 26.4
002EEA0D 2019-04-17 18:11:33 22.7 22 26.4
002EEA0D 2019-04-17 17:37:45 22.9 22 26.4
002EEA0D 2019-04-17 17:03:59 22.9 22 26.4
002EEA0D 2019-04-17 16:30:13 23 22 26.4
002EEA0D 2019-04-17 15:56:26 23 23 26.1
002EEA0D 2019-04-17 15:22:40 22.9 23 26.1
002EEA0D 2019-04-17 14:48:53 22.9 23 26
002EEA0D 2019-04-17 14:15:07 22.9 24 26.2
002EEA0D 2019-04-17 13:41:21 22.9 23 26.3
002EEA0D 2019-04-17 13:07:35 22.7 23 26.2
002EEA0D 2019-04-17 12:33:50 22.6 24 26.3
002EEA0D 2019-04-17 12:00:04 22.4 23 26.1
002EEA0D 2019-04-17 11:26:17 22.3 22 26
002EEA0D 2019-04-17 10:52:31 22.2 22 26
002EEA0D 2019-04-17 10:18:44 22.2 22 26
002EEA0D 2019-04-17 09:44:58 22.1 22 26.1
002EEA0D 2019-04-17 09:11:11 22.2 22 25.8
002EEA0D 2019-04-17 08:37:24 22 21 25.8
002EEA0D 2019-04-17 08:03:36 22 21 25.5
002EEA0D 2019-04-17 07:29:50 22 20 25.4
002EEA0D 2019-04-17 06:56:04 22 20 25.4
002EEA0D 2019-04-17 06:22:19 22 20 25.5
002EEA0D 2019-04-17 05:48:33 22 20 25.5
002EEA0D 2019-04-17 05:14:48 22 20 25.5
002EEA0D 2019-04-17 04:41:03 22 20 25.8
002EEA0D 2019-04-17 04:07:16 22 20 25.8
002EEA0D 2019-04-17 03:33:31 22 20 25.8
002EEA0D 2019-04-17 02:59:45 22 20 25.7
002EEA0D 2019-04-17 02:25:58 22 20 25.8
002EEA0D 2019-04-17 01:52:12 22 20 25.8
002EEA0D 2019-04-17 01:18:24 22.1 20 25.8
002EEA0D 2019-04-17 00:44:37 22.2 20 25.8
002EEA0D 2019-04-17 00:10:50 22.2 20 25.8
002EEA0D 2019-04-16 23:37:03 22.2 20 25.7
002EEA0D 2019-04-16 23:03:15 22.2 20 25.8
002EEA0D 2019-04-16 22:29:27 22.2 20 25.8
002EEA0D 2019-04-16 21:55:40 22.2 20 25.7
002EEA0D 2019-04-16 21:21:53 22.2 20 26
002EEA0D 2019-04-16 20:48:04 22.3 20 26
002EEA0D 2019-04-16 20:14:17 22.5 20 26.1
002EEA0D 2019-04-16 19:40:28 22.5 20 26
002EEA0D 2019-04-16 19:06:40 22.3 20 26.1
002EEA0D 2019-04-16 18:32:52 22.2 19 26.1
002EEA0D 2019-04-16 17:59:05 22.4 19 26.1
002EEA0D 2019-04-16 17:25:19 22.5 19 26.3
002EEA0D 2019-04-16 16:51:31 22.7 19 26.3
002EEA0D 2019-04-16 16:17:45 22.7 19 26.2
002EEA0D 2019-04-16 15:43:57 22.7 19 26.2
002EEA0D 2019-04-16 15:10:09 22.7 19 26.2
002EEA0D 2019-04-16 14:36:22 22.7 20 25.9
002EEA0D 2019-04-16 14:02:36 22.6 19 26.3
002EEA0D 2019-04-16 13:28:50 22.5 19 26.2
002EEA0D 2019-04-16 12:55:04 22.5 19 26.4
002EEA0D 2019-04-16 12:21:16 22.3 18 26.3
002EEA0D 2019-04-16 11:47:29 22.2 18 26.4
002EEA0D 2019-04-16 11:13:42 22.2 18 26.4
002EEA0D 2019-04-16 10:39:55 22.2 19 26.3
002EEA0D 2019-04-16 10:06:08 22.1 19 26.3
002EEA0D 2019-04-16 09:32:20 22.1 18 26.3
002EEA0D 2019-04-16 08:58:33 22 18 26.3
002EEA0D 2019-04-16 08:24:45 22 18 26.2
002EEA0D 2019-04-16 07:50:59 22 18 26.3
002EEA0D 2019-04-16 07:17:11 22 18 26.3
002EEA0D 2019-04-16 06:43:23 22 18 26.3
002EEA0D 2019-04-16 06:09:36 22 18 26.1
002EEA0D 2019-04-16 05:35:48 22 18 26.2
002EEA0D 2019-04-16 05:02:01 22 18 26
002EEA0D 2019-04-16 04:28:14 22 18 26
002EEA0D 2019-04-16 03:54:26 22 18 25.9
002EEA0D 2019-04-16 03:20:40 22 18 25.8
002EEA0D 2019-04-16 02:46:53 22 18 25.7
002EEA0D 2019-04-16 02:13:04 22 18 25.6
002EEA0D 2019-04-16 01:39:17 22 18 25.8
002EEA0D 2019-04-16 01:05:30 22 17 25.6
002EEA0D 2019-04-16 00:31:43 22 17 25.5
002EEA0D 2019-04-15 23:57:56 22 17 25.2
002EEA0D 2019-04-15 23:24:09 22 17 25.1
002EEA0D 2019-04-15 22:50:21 22.1 17 25
002EEA0D 2019-04-15 22:16:33 22.2 17 24.9
002EEA0D 2019-04-15 21:42:43 22.2 17 24.9
002EEA0D 2019-04-15 21:08:56 22.2 17 24.9
002EEA0D 2019-04-15 20:35:07 22.3 17 25.3
002EEA0D 2019-04-15 20:01:19 22.3 17 25.4
002EEA0D 2019-04-15 19:27:31 22.2 16 25.5
002EEA0D 2019-04-15 18:53:43 22.2 16 25.6
002EEA0D 2019-04-15 18:19:55 22.3 15 25.7
002EEA0D 2019-04-15 17:46:08 22.5 15 25.5
002EEA0D 2019-04-15 17:12:19 22.6 15 25.5
002EEA0D 2019-04-15 16:38:31 22.7 16 25.4
002EEA0D 2019-04-15 16:04:44 22.7 16 25.5
002EEA0D 2019-04-15 15:30:55 22.7 16 25.5
002EEA0D 2019-04-15 14:57:06 22.7 16 25.6
002EEA0D 2019-04-15 14:23:19 22.6 16 25.6
002EEA0D 2019-04-15 13:49:32 22.5 16 25.6
002EEA0D 2019-04-15 13:15:43 22.5 17 25.7
002EEA0D 2019-04-15 12:41:56 22.4 17 25.7
002EEA0D 2019-04-15 12:08:08 22.2 17 25.8
002EEA0D 2019-04-15 11:34:20 22.2 16 25.7
002EEA0D 2019-04-15 11:00:32 22.2 17 25.8
002EEA0D 2019-04-15 10:26:44 22 17 25.9
002EEA0D 2019-04-15 09:52:58 22 17 25.9
002EEA0D 2019-04-15 09:19:10 22 18 25.9
002EEA0D 2019-04-15 08:45:23 22 17 25.9
002EEA0D 2019-04-15 08:11:36 21.8 17 26
002EEA0D 2019-04-15 07:37:48 21.8 17 26.2
002EEA0D 2019-04-15 07:04:00 21.8 17 26.3
002EEA0D 2019-04-15 06:30:11 21.8 18 26
002EEA0D 2019-04-15 05:56:24 21.8 18 25.8
002EEA0D 2019-04-15 05:22:35 21.8 18 25.6
002EEA0D 2019-04-15 04:48:46 21.8 18 25.5
002EEA0D 2019-04-15 04:14:59 21.8 18 25.4
002EEA0D 2019-04-15 03:41:10 21.8 18 25.5
002EEA0D 2019-04-15 03:07:23 21.8 18 25.2
002EEA0D 2019-04-15 02:33:35 21.8 18 25.3
002EEA0D 2019-04-15 01:59:48 21.8 18 25.2
002EEA0D 2019-04-15 01:26:00 21.8 18 25.3
002EEA0D 2019-04-15 00:52:12 21.8 18 25.2
002EEA0D 2019-04-15 00:18:24 21.8 18 25.3
002EEA0D 2019-04-14 23:44:36 21.8 18 25.6
002EEA0D 2019-04-14 23:10:49 21.8 18 25.4
002EEA0D 2019-04-14 22:37:00 21.8 18 25.4
002EEA0D 2019-04-14 22:03:13 21.8 18 25.3
002EEA0D 2019-04-14 21:29:25 21.8 19 25.6
002EEA0D 2019-04-14 20:55:37 21.9 19 25.7
002EEA0D 2019-04-14 20:21:49 22 19 25.7
002EEA0D 2019-04-14 19:48:01 22 19 25.7
002EEA0D 2019-04-14 19:14:14 22 19 25.7
002EEA0D 2019-04-14 18:40:26 22 19 25.9
002EEA0D 2019-04-14 18:06:40 21.8 18 25.9
002EEA0D 2019-04-14 17:32:52 21.8 19 25.9
002EEA0D 2019-04-14 16:59:05 21.8 18 25.8
002EEA0D 2019-04-14 16:25:17 21.8 19 25.8
002EEA0D 2019-04-14 15:51:30 21.8 19 25.8
002EEA0D 2019-04-14 15:17:42 21.8 19 25.9
002EEA0D 2019-04-14 14:43:55 21.8 19 25.9
002EEA0D 2019-04-14 14:10:07 21.8 19 26.3
002EEA0D 2019-04-14 13:36:21 21.8 19 26.3
002EEA0D 2019-04-14 13:02:33 21.9 19 26.2
002EEA0D 2019-04-14 12:28:47 21.9 19 26.2
002EEA0D 2019-04-14 11:55:01 21.8 19 26.2
002EEA0D 2019-04-14 11:21:15 21.8 19 26.2
002EEA0D 2019-04-14 10:47:29 21.8 19 26.3
002EEA0D 2019-04-14 10:13:43 21.8 19 26.2
002EEA0D 2019-04-14 09:39:56 21.8 19 25.9
002EEA0D 2019-04-14 09:06:09 21.8 19 26.1
002EEA0D 2019-04-14 08:32:21 21.8 19 26.2
002EEA0D 2019-04-14 07:58:34 21.8 18 26.2
002EEA0D 2019-04-14 07:24:46 21.8 18 25.8
002EEA0D 2019-04-14 06:50:57 21.8 18 25.8
002EEA0D 2019-04-14 06:17:09 21.8 18 25.7
002EEA0D 2019-04-14 05:43:21 21.8 18 25.7
002EEA0D 2019-04-14 05:09:33 21.8 18 25.7
002EEA0D 2019-04-14 04:35:45 21.8 18 25.5
002EEA0D 2019-04-14 04:01:57 21.8 18 25.4
002EEA0D 2019-04-14 03:28:11 21.8 18 25.1
002EEA0D 2019-04-14 02:54:24 21.9 18 25.2
002EEA0D 2019-04-14 02:20:37 21.9 18 25.3
002EEA0D 2019-04-14 01:46:49 21.9 18 25.3
002EEA0D 2019-04-14 01:13:01 21.9 18 25.3
002EEA0D 2019-04-14 00:39:14 22 18 25.2
002EEA0D 2019-04-14 00:05:27 22 18 25.2
002EEA0D 2019-04-13 23:31:39 22 18 25.2
002EEA0D 2019-04-13 22:57:52 22 18 25.5
002EEA0D 2019-04-13 22:24:05 22 18 25.6
002EEA0D 2019-04-13 21:50:17 22 18 25.7
002EEA0D 2019-04-13 21:16:29 22 18 25.6
002EEA0D 2019-04-13 20:42:42 22 18 25.4
002EEA0D 2019-04-13 20:08:52 22 18 25.4
002EEA0D 2019-04-13 19:35:03 22.1 18 25.4
002EEA0D 2019-04-13 19:01:14 22.1 18 25.2
002EEA0D 2019-04-13 18:27:26 22.1 18 25.3
002EEA0D 2019-04-13 17:53:38 22.2 18 25.4
002EEA0D 2019-04-13 17:19:49 22.2 18 25.4
002EEA0D 2019-04-13 16:46:02 22.2 18 25.4
002EEA0D 2019-04-13 16:12:13 22.2 18 25.7
002EEA0D 2019-04-13 15:38:25 22.2 18 25.8
002EEA0D 2019-04-13 15:04:37 22.2 18 25.8
002EEA0D 2019-04-13 14:30:49 22.3 18 25.8
002EEA0D 2019-04-13 13:57:00 22.2 18 25.9
002EEA0D 2019-04-13 13:23:12 22.2 18 25.8
002EEA0D 2019-04-13 12:49:24 22.2 18 25.7
002EEA0D 2019-04-13 12:15:36 22.3 19 25.6
002EEA0D 2019-04-13 11:41:48 22.3 19 25.7
002EEA0D 2019-04-13 11:08:00 22.3 19 25.7
002EEA0D 2019-04-13 10:34:12 22.2 19 25.7
002EEA0D 2019-04-13 10:00:25 22.2 18 25.3
002EEA0D 2019-04-13 09:26:36 22.2 18 25.2
002EEA0D 2019-04-13 08:52:48 22.2 18 24.7
002EEA0D 2019-04-13 08:19:01 22.2 18 24.7
002EEA0D 2019-04-13 07:45:12 22.2 18 24.7
002EEA0D 2019-04-13 07:11:24 22.2 18 24.6
002EEA0D 2019-04-13 06:37:35 22.2 18 24.7
002EEA0D 2019-04-13 06:03:46 22.2 18 24.7
002EEA0D 2019-04-13 05:29:59 22.2 18 24.6
002EEA0D 2019-04-13 04:56:10 22.2 18 24.7
002EEA0D 2019-04-13 04:22:20 22.2 18 25.1
002EEA0D 2019-04-13 03:48:32 22.3 18 25.3
002EEA0D 2019-04-13 03:14:45 22.3 18 25.3
002EEA0D 2019-04-13 02:40:57 22.5 18 25.2
002EEA0D 2019-04-13 02:07:08 22.5 19 24.9
002EEA0D 2019-04-13 01:33:20 22.5 19 24.8
002EEA0D 2019-04-13 00:59:32 22.5 19 24.7
002EEA0D 2019-04-13 00:25:43 22.5 19 24.8
002EEA0D 2019-04-12 23:51:55 22.5 19 24.8
002EEA0D 2019-04-12 23:18:08 22.5 19 24.8
002EEA0D 2019-04-12 22:44:20 22.6 19 24.9
002EEA0D 2019-04-12 22:10:32 22.7 19 25
002EEA0D 2019-04-12 21:36:42 22.7 20 25
002EEA0D 2019-04-12 21:02:54 22.7 20 24.9
002EEA0D 2019-04-12 20:29:03 22.7 19 25.1
002EEA0D 2019-04-12 19:55:14 22.7 19 25.3
002EEA0D 2019-04-12 19:21:24 22.7 19 25.5
002EEA0D 2019-04-12 18:47:34 22.8 18 25.6
002EEA0D 2019-04-12 18:13:44 22.9 18 25.7
002EEA0D 2019-04-12 17:39:55 22.9 18 25.9
002EEA0D 2019-04-12 17:06:07 23.1 18 26.1
002EEA0D 2019-04-12 16:32:18 23.1 19 26.3
002EEA0D 2019-04-12 15:58:29 23.1 19 26.6
002EEA0D 2019-04-12 15:24:39 22.9 19 27.2
002EEA0D 2019-04-12 14:50:49 22.7 20 27.5
002EEA0D 2019-04-12 14:17:01 22.5 20 26.1
002EEA0D 2019-04-12 13:43:11 22 21 20.7
002EEA0D 2019-04-12 13:09:24 21.2 24 16.4